Location: ??????????
(54.8537°N, 38.8755°E)
Time: 22:22:02
(UTC+00:00)

Transit 2A Rocket - Pass Details

Date: 16 September 2024
Orbit: 582 x 908 km, 66.7° (Epoch: 09 October)

Event Time Altitude Azimuth Distance (km) Brightness Sun altitude
Exits shadow 23:51:45 18° 295° (WNW) 2,088 7.1 -24.9°
Maximum altitude 23:55:16 30° 344° (NNW) 1,568 6.8 -24.6°
Drops below altitude 10° 00:00:31 10° 45° (NE) 2,558 8.8 -24.1°
Sets 00:03:18 0° 56° (NE) 3,463 9.8 -23.8°
